Location: Cheching
(60.0667°N, 164.2167°W)
Time: 01:25:23
(UTC+00:00)

DX 1 - Pass Details

Date: 26 January 2021
Orbit: 618 x 631 km, 98.5° (Epoch: 07 March)

Event Time Altitude Azimuth Distance (km) Brightness Sun altitude
Exits shadow 07:13:41 22° 239° (WSW) 1,379 ? -31.4°
Drops below altitude 10° 07:15:21 10° 228° (SW) 1,989 ? -31.6°
Sets 07:17:36 0° 222° (SW) 2,891 ? -31.9°
